Linn Creek, MO

10:24 PM CST on December 08, 2016 (GMT -0600)
Fine Memorial

Weather History for KAIZ - February, 2013

Change the Weather History Date:

Wednesday, February 27, 2013

  Actual Average Record
Temperature  
Mean Temperature 32 °F -  
Max Temperature 33 °F 46 °F 69 °F (2006)
Min Temperature 30 °F 28 °F 1 °F (2015)
Degree Days  
Heating Degree Days 34    
Moisture  
Dew Point 28 °F    
Average Humidity 85    
Maximum Humidity 100    
Minimum Humidity 75    
Precipitation  
Precipitation 0.00 in - - ()
Sea Level Pressure  
Sea Level Pressure 29.95 in    
Wind  
Wind Speed 10 mph (WNW)    
Max Wind Speed 15 mph    
Max Gust Speed 24 mph    
Visibility 5 miles    
Events      
Averages and records for this station are not official NWS values.
T = Trace of Precipitation, MM = Missing Value Source: NWS Daily Summary

Daily Weather History Graph

Daily Weather History Graph

Search for Another Location

Airport or City:

Trip Planner

Search our weather history database for the weather conditions in past years. The results will help you decide how hot, cold, wet, or windy it might be!

Date:

Astronomy

Feb. 27, 2013 Rise Set
Actual Time 6:44 AM CST 6:01 PM CST
Civil Twilight 6:17 AM CST 6:28 PM CST
Nautical Twilight 5:47 AM CST 6:58 PM CST
Astronomical Twilight 5:16 AM CST 7:29 PM CST
Moon 8:20 PM CST (2/27) 7:22 AM CST (2/27)
Length of Visible Light 12h 10m
Length of Day
11h 17m
Waning Gibbous, 96% of the Moon is Illuminated
Feb 27
Waning Gibbous
Mar 4
Last Quarter
Mar 11
New
Mar 19
First Quarter
Mar 27
Full

Hourly Weather History & Observations

Time (CST) Temp. Windchill Dew Point Humidity Pressure Visibility Wind Dir Wind Speed Gust Speed Precip Events Conditions
12:35 PM 33.8 °F 25.8 °F - N/A% 29.86 in 2.0 mi WNW 10.4 mph 17.3 mph N/A   Unknown
12:55 PM 33.8 °F 23.9 °F 33.8 °F 100% 29.87 in 1.0 mi WNW 15.0 mph 20.7 mph N/A   Unknown
1:15 PM 33.8 °F 26.4 °F 33.8 °F 100% 29.88 in 1.5 mi WNW 9.2 mph 16.1 mph N/A   Unknown
1:35 PM 33.8 °F 25.3 °F - N/A% 29.88 in 1.2 mi West 11.5 mph 18.4 mph N/A   Unknown
1:55 PM 33.8 °F 26.4 °F - N/A% 29.89 in 3.0 mi WNW 9.2 mph - N/A   Unknown
2:15 PM 33.8 °F 26.4 °F 33.8 °F 100% 29.89 in 3.0 mi WNW 9.2 mph - N/A   Unknown
2:35 PM 33.8 °F 25.3 °F 33.8 °F 100% 29.90 in 4.0 mi WNW 11.5 mph 17.3 mph N/A   Unknown
2:55 PM 33.8 °F 25.3 °F 33.8 °F 100% 29.90 in 3.0 mi WNW 11.5 mph 18.4 mph N/A   Unknown
3:15 PM 33.8 °F 25.3 °F 33.8 °F 100% 29.91 in 5.0 mi WNW 11.5 mph 23.0 mph N/A   Unknown
3:35 PM 33.8 °F 24.3 °F 30.2 °F 87% 29.91 in 6.0 mi WNW 13.8 mph 24.2 mph N/A   Unknown
3:55 PM 32.0 °F 22.1 °F 28.4 °F 87% 29.92 in 2.0 mi WNW 13.8 mph 18.4 mph N/A   Unknown
4:15 PM 32.0 °F 25.6 °F 28.4 °F 87% 29.93 in 5.0 mi WNW 6.9 mph 18.4 mph N/A   Unknown
4:35 PM 32.0 °F 23.6 °F 26.6 °F 80% 29.94 in 3.0 mi WNW 10.4 mph - N/A   Unknown
4:55 PM 32.0 °F 24.2 °F 28.4 °F 87% 29.93 in 3.0 mi WNW 9.2 mph 19.6 mph N/A   Unknown
5:15 PM 32.0 °F 23.6 °F 26.6 °F 80% 29.94 in 3.0 mi WNW 10.4 mph 19.6 mph N/A   Unknown
5:35 PM 32.0 °F 23.6 °F 26.6 °F 80% 29.95 in 3.0 mi WNW 10.4 mph 16.1 mph N/A   Unknown
5:55 PM 32.0 °F 23.0 °F 26.6 °F 80% 29.96 in 5.0 mi WNW 11.5 mph 20.7 mph N/A   Unknown
6:15 PM 32.0 °F 26.4 °F 26.6 °F 80% 29.96 in 5.0 mi WNW 5.8 mph - N/A   Unknown
6:35 PM 32.0 °F 25.6 °F 26.6 °F 80% 29.97 in 7.0 mi WNW 6.9 mph - N/A   Unknown
6:55 PM 32.0 °F 24.8 °F 26.6 °F 80% 29.98 in 6.0 mi WNW 8.1 mph 16.1 mph N/A   Unknown
7:15 PM 30.2 °F 21.3 °F 26.6 °F 86% 29.98 in 5.0 mi WNW 10.4 mph 19.6 mph N/A   Unknown
7:35 PM 30.2 °F 23.4 °F 24.8 °F 80% 29.98 in 7.0 mi NW 6.9 mph 16.1 mph N/A   Unknown
7:55 PM 30.2 °F 24.3 °F 24.8 °F 80% 29.98 in 8.0 mi WNW 5.8 mph - N/A   Unknown
8:15 PM 30.2 °F 21.9 °F 26.6 °F 86% 29.99 in 7.0 mi West 9.2 mph - N/A   Unknown
8:35 PM 30.2 °F 22.6 °F 24.8 °F 80% 29.99 in 7.0 mi West 8.1 mph - N/A   Unknown
8:55 PM 30.2 °F 22.6 °F 24.8 °F 80% 29.99 in 9.0 mi West 8.1 mph - N/A   Unknown
9:15 PM 30.2 °F 23.4 °F 24.8 °F 80% 29.99 in 10.0 mi WNW 6.9 mph - N/A   Unknown
9:35 PM 30.2 °F 23.4 °F 24.8 °F 80% 29.99 in 9.0 mi WNW 6.9 mph - N/A   Unknown
9:55 PM 30.2 °F 22.6 °F 24.8 °F 80% 29.99 in 9.0 mi WNW 8.1 mph - N/A   Unknown
10:35 PM 30.2 °F 23.4 °F 24.8 °F 80% 29.99 in 5.0 mi WNW 6.9 mph - N/A   Unknown
10:55 PM 30.2 °F 22.6 °F 24.8 °F 80% 29.99 in 8.0 mi WNW 8.1 mph - N/A   Unknown
11:15 PM 32.0 °F 24.8 °F 24.8 °F 75% 29.99 in 10.0 mi WNW 8.1 mph - N/A   Unknown
11:35 PM 32.0 °F 26.4 °F 24.8 °F 75% 29.98 in 10.0 mi WNW 5.8 mph - N/A   Unknown